TimeCDT,TemperatureF,Dew PointF,Humidity,Sea Level PressureIn,VisibilityMPH,Wind Direction,Wind SpeedMPH,Gust SpeedMPH,PrecipitationIn,Events,Conditions,WindDirDegrees,DateUTC
12:53 AM,61.0,54.0,78,30.12,10.0,Calm,Calm,-,N/A,,Clear,0,2013-06-21 05:53:00
1:53 AM,60.1,55.0,83,30.10,10.0,Calm,Calm,-,N/A,,Clear,0,2013-06-21 06:53:00
2:53 AM,62.1,53.1,72,30.08,10.0,Calm,Calm,-,N/A,,Clear,0,2013-06-21 07:53:00
3:53 AM,60.1,53.1,78,30.08,10.0,Calm,Calm,-,N/A,,Clear,0,2013-06-21 08:53:00
4:53 AM,59.0,54.0,83,30.07,10.0,SW,3.5,-,N/A,,Clear,230,2013-06-21 09:53:00
5:53 AM,60.1,55.9,86,30.07,10.0,SSW,4.6,-,N/A,,Clear,200,2013-06-21 10:53:00
6:53 AM,64.0,59.0,84,30.02,10.0,Calm,Calm,-,N/A,,Clear,0,2013-06-21 11:53:00
7:53 AM,66.9,61.0,81,30.03,10.0,SSE,5.8,-,N/A,,Partly Cloudy,160,2013-06-21 12:53:00
8:53 AM,68.0,62.1,81,30.04,8.0,South,4.6,-,N/A,,Mostly Cloudy,170,2013-06-21 13:53:00
9:53 AM,69.1,64.0,84,30.09,6.0,WNW,11.5,21.9,0.01,Rain,Light Rain,300,2013-06-21 14:53:00
10:11 AM,68.0,64.4,88,30.09,10.0,WNW,4.6,-,0.01,Rain-Thunderstorm,Light Rain,300,2013-06-21 15:11:00
10:28 AM,68.0,64.4,88,30.09,10.0,West,6.9,-,0.01,Rain,Light Rain,280,2013-06-21 15:28:00
10:40 AM,66.2,64.4,94,30.09,10.0,West,6.9,-,0.02,Rain-Thunderstorm,Light Rain,260,2013-06-21 15:40:00
10:51 AM,66.2,64.4,94,30.10,10.0,West,10.4,-,0.02,Rain-Thunderstorm,Light Rain,270,2013-06-21 15:51:00
10:53 AM,66.9,64.9,93,30.10,10.0,West,10.4,-,0.02,Rain-Thunderstorm,Light Rain,270,2013-06-21 15:53:00
11:42 AM,66.2,64.4,94,30.05,5.0,SSE,8.1,-,0.12,Rain-Thunderstorm,Thunderstorms and Rain,150,2013-06-21 16:42:00
11:53 AM,66.0,64.9,96,30.02,10.0,South,9.2,-,0.13,Rain-Thunderstorm,Light Thunderstorms and Rain,170,2013-06-21 16:53:00
12:15 PM,66.2,64.4,94,29.96,10.0,SSE,17.3,23.0,0.01,Rain,Light Rain,150,2013-06-21 17:15:00
12:53 PM,66.9,66.0,97,29.91,10.0,South,21.9,35.7,0.02,,Scattered Clouds,180,2013-06-21 17:53:00
1:15 PM,68.0,66.2,94,29.98,10.0,SW,17.3,27.6,N/A,,Mostly Cloudy,230,2013-06-21 18:15:00
1:23 PM,69.8,66.2,88,29.96,10.0,SSW,11.5,21.9,N/A,,Scattered Clouds,210,2013-06-21 18:23:00
1:43 PM,69.8,66.2,88,29.94,10.0,South,23.0,28.8,N/A,,Partly Cloudy,190,2013-06-21 18:43:00
1:53 PM,70.0,66.0,87,29.94,10.0,South,21.9,28.8,N/A,,Clear,190,2013-06-21 18:53:00
2:53 PM,75.0,66.9,76,29.94,10.0,SSW,10.4,-,N/A,,Clear,200,2013-06-21 19:53:00
3:53 PM,77.0,66.9,71,29.94,10.0,WSW,9.2,-,N/A,,Clear,240,2013-06-21 20:53:00
4:53 PM,77.0,66.0,69,29.96,10.0,SSW,10.4,-,N/A,,Clear,210,2013-06-21 21:53:00
5:53 PM,78.1,66.9,68,29.97,10.0,SW,10.4,-,N/A,,Mostly Cloudy,220,2013-06-21 22:53:00
6:53 PM,75.0,68.0,79,29.99,10.0,SW,6.9,-,N/A,,Scattered Clouds,230,2013-06-21 23:53:00
7:53 PM,73.9,68.0,82,30.00,10.0,SSW,4.6,-,N/A,,Mostly Cloudy,200,2013-06-22 00:53:00
8:53 PM,71.1,68.0,90,30.01,10.0,SW,5.8,-,N/A,,Mostly Cloudy,230,2013-06-22 01:53:00
9:53 PM,70.0,66.9,90,30.02,10.0,SW,6.9,-,N/A,,Clear,220,2013-06-22 02:53:00
10:53 PM,69.1,66.9,93,30.01,10.0,SW,4.6,-,N/A,,Mostly Cloudy,220,2013-06-22 03:53:00
11:53 PM,70.0,68.0,93,30.03,10.0,SSW,6.9,-,N/A,,Overcast,200,2013-06-22 04:53:00